Location: Kershaw
(34.5481°N, 80.5823°W)
Time: 16:05:32
(UTC+00:00)

Transit 2A - Pass Details

Date: 11 October 2022
Orbit: 598 x 959 km, 66.7° (Epoch: 06 December)

Event Time Altitude Azimuth Distance (km) Brightness Sun altitude
Rises 00:58:19 0° 173° (S) 2,960 - -26.3°
Reaches altitude 10° 01:01:06 10° 158° (SSE) 2,006 - -26.9°
Maximum altitude 01:04:27 21° 109° (ESE) 1,388 - -27.6°
Drops below altitude 10° 01:07:43 10° 60° (ENE) 1,945 - -28.2°
Sets 01:10:21 0° 44° (NE) 2,842 - -28.8°
